Location: Peebles
(55.6412°N, 3.1714°W)
Time: 21:57:48
(UTC+01:00)

deb AGENA D - Pass Details

Date: 08 July 2022
Orbit: 951 x 1019 km, 99.8° (Epoch: 17 August)

Event Time Altitude Azimuth Distance (km) Brightness Sun altitude
Rises 22:48:17 0° 80° (E) 3,763 ? -5.7°
Reaches altitude 10° 22:52:26 10° 53° (NE) 2,809 ? -6.1°
Maximum altitude 22:54:54 13° 30° (NNE) 2,615 ? -6.3°
Drops below altitude 10° 22:57:22 10° 7° (N) 2,800 ? -6.4°
Sets 23:01:29 0° 340° (NNW) 3,740 ? -6.8°
